Regional Weather Roundup
Issued by NWS

Home | Current Version | Previous Version | Text Only | Print | Product List | Glossary On
Versions: 1 2 3 4 5 6 7 8 9 10 11 12 13 14 15 16 17 18 19 20 21 22 23 24 25 26 27 28 29 30 31 32 33 34 35 36 37 38 39 40 41 42 43 44 45 46 47 48 49 50
134
ASUS44 KLIX 250505
RWRLA
LOUISIANA WEATHER ROUNDUP
NATIONAL WEATHER SERVICE NEW ORLEANS LA
1100 PM CST SAT JAN 24 2015

NOTE: "FAIR" INDICATES FEW OR NO CLOUDS BELOW 12,000 FEET WITH NO
      SIGNIFICANT WEATHER AND/OR OBSTRUCTIONS TO VISIBILITY.
      SKY/WX - SKY CONDITION AND SIGNIFICANT WEATHER.
      TMP - AIR TEMPERATURE.    DP   - DEWPOINT TEMPERATURE.
      RH  - RELATIVE HUMIDITY.  PRES - PRESSURE.
      HX  - HEAT INDEX.         WCI  - WIND CHILL INDEX.

*  THESE STATIONS ARE NOT NWS OR FAA STATIONS AND ARE NOT UNDER
   NWS QUALITY CONTROL.

LAZ040-048-061>063-065-066-069-250600-
SOUTHEAST LOUISIANA

CITY           SKY/WX    TMP DP  RH WIND       PRES   REMARKS
N.O. AUDUBON   NOT AVBL
N.O. INTL ARPT PTCLDY    45  39  79 SW9       30.10S
N.O. LAKEFRONT CLEAR     50  40  68 W16       30.10S
N.O. DOWNTOWN* FAIR      46  37  71 SW6       30.11S
SLIDELL        CLEAR     46  39  76 SW6       30.08R
BATON ROUGE    CLEAR     45  37  73 SW10      30.08S
BOOTHVILLE     CLEAR     48  42  80 W7        30.12R
BELLE CHASSE   PTCLDY    47  39  74 SW5       30.10S
BOGALUSA*        N/A     36  33  89 CALM      30.08S
GALLIANO*      CLEAR     47  42  84 MISG      30.12S
NEW ROADS*     FAIR      45  38  77 SW6       30.07S
GONZALES*      FAIR      45  41  86 CALM      30.10R
HAMMOND*       CLEAR     45  36  70 SW3       30.10S
HOUMA*         CLEAR     44  41  89 W3        30.11S
PORT FOURCHON* CLEAR     52  45  76 W8        30.14F

$$

LAZ041-044-053-054-250600-
SOUTHWEST LOUISIANA

CITY           SKY/WX    TMP DP  RH WIND       PRES   REMARKS
LAKE CHARLES   CLEAR     48  45  89 SW7       30.08S
LAFAYETTE      CLEAR     44  41  89 SW3       30.09S
PATTERSON      CLEAR     43  39  87 CALM      30.11F
SALT POINT       N/A     50  47  89 W5        30.09F
NEW IBERIA     CLEAR     44  40  85 SW6       30.10F
CHENAULT AIRPK CLEAR     46  44  91 SW3       30.09S

$$

LAZ027-028-250600-
CENTRAL LOUISIANA

CITY           SKY/WX    TMP DP  RH WIND       PRES   REMARKS
FORT POLK      CLEAR     43  39  85 SW5       30.05S
ALEXANDRIA INT PTCLDY    41  37  86 CALM      30.04S
ALEXANDRIA     PTCLDY    36  34  92 CALM      30.05S

$$

LAZ001-002-250600-
NORTHWEST LOUISIANA

CITY           SKY/WX    TMP DP  RH WIND       PRES   REMARKS
SHREVEPORT     CLEAR     40  33  76 SW5       30.01S
BARKSDALE AFB  CLEAR     36  31  83 S5        30.02S WCI  32
DTN SHREVEPORT CLEAR     45  34  65 SW5       30.02S

$$

LAZ014-016-250600-
NORTHEAST LOUISIANA

CITY           SKY/WX    TMP DP  RH WIND       PRES   REMARKS
MONROE         CLEAR     42  36  79 SW6       30.02S
TALLULAH       PTCLDY    45  35  68 VRB5      30.02F

$$




USA.gov is the U.S. government's official web portal to all federal, state and local government web resources and services.